contact:dominique.lefevre@mio.osupytheas.fr, maurice.libes@osupytheas.fr, didier.mallarino@osupytheas.fr
Project:EMSO http://www.emso-fr.org/EMSO-France
Depth: 2436.0 m
Title:EMSO Ligure Ouest : Data MII capteur AQUADOPP
Date,Latitude,Longitude,X_East,Y_North,Z_Up,Amplitude_X,Amplitude_Y,Amplitude_Z,Batterie,SoundSpeed,Heading,Pitch,Roll,Pressure,TIS,Speed,Direction
, degrees North, degrees East, m.s-1, m.s-1,m.s-1, 1, 1, 1, Volt, m.s-1, degree, degree, degree, dbar, degree_C, m.s-1, degree
2023-01-23T00:04:03,42.805,6.029,0.017,-0.012,0.012,103.0,103.0,102.0,13.4,1505.2,320.6,-0.8,1.8,2471.12,13.28,0.02,125.2
2023-01-23T00:07:03,42.805,6.029,0.029,-0.016,-0.008,103.0,101.0,102.0,13.4,1505.2,316.6,-0.8,1.8,2471.135,13.28,0.033,118.9
2023-01-23T00:10:03,42.805,6.029,0.017,-0.011,-0.015,103.0,103.0,103.0,13.4,1505.2,326.7,-0.8,1.8,2471.093,13.28,0.02,122.9
2023-01-23T00:13:03,42.805,6.029,0.008,-0.024,0.024,103.0,103.0,103.0,13.3,1505.2,323.2,-0.8,1.8,2471.059,13.28,0.025,161.6
2023-01-23T00:16:03,42.805,6.029,0.02,-0.019,0.017,103.0,103.0,103.0,13.4,1505.2,333.4,-0.8,1.8,2471.096,13.29,0.027,133.5
2023-01-23T00:19:03,42.805,6.029,0.008,-0.013,0.012,103.0,103.0,102.0,13.3,1505.2,338.9,-0.8,1.9,2471.12,13.29,0.015,148.4
2023-01-23T00:22:03,42.805,6.029,0.03,-0.019,-0.032,103.0,102.0,104.0,13.4,1505.2,328.0,-0.8,1.8,2471.139,13.29,0.035,122.3
2023-01-23T00:25:03,42.805,6.029,0.035,-0.021,0.016,103.0,102.0,101.0,13.3,1505.2,322.6,-0.8,1.8,2471.075,13.29,0.04,121.0
2023-01-23T00:28:03,42.805,6.029,0.026,-0.02,-0.002,101.0,103.0,102.0,13.3,1505.2,322.6,-0.7,1.8,2471.098,13.29,0.032,127.6
2023-01-23T00:31:03,42.805,6.029,0.034,-0.016,0.021,103.0,102.0,102.0,13.4,1505.2,321.9,-0.8,1.8,2471.072,13.29,0.037,115.2
2023-01-23T00:34:03,42.805,6.029,0.015,-0.023,0.02,104.0,101.0,102.0,13.4,1505.2,336.4,-0.7,1.8,2471.029,13.29,0.027,146.9
2023-01-23T00:37:03,42.805,6.029,0.027,0.003,0.024,104.0,104.0,101.0,13.3,1505.2,318.5,-0.8,1.8,2471.058,13.29,0.027,83.7
2023-01-23T00:40:03,42.805,6.029,0.016,-0.036,-0.005,102.0,104.0,103.0,13.4,1505.2,322.6,-0.8,1.8,2471.031,13.29,0.039,156.0
2023-01-23T00:43:03,42.805,6.029,0.017,0.002,0.023,103.0,104.0,103.0,13.3,1505.2,322.1,-0.8,1.8,2471.057,13.29,0.017,83.3
2023-01-23T00:46:03,42.805,6.029,0.009,0.0,0.008,103.0,104.0,102.0,13.3,1505.2,319.0,-0.8,1.8,2471.084,13.29,0.009,90.0
2023-01-23T00:49:03,42.805,6.029,0.006,-0.021,0.005,103.0,104.0,102.0,13.3,1505.2,323.7,-0.8,1.8,2470.998,13.29,0.021,164.1
2023-01-23T00:52:03,42.805,6.029,0.009,-0.024,-0.008,104.0,105.0,101.0,13.4,1505.2,337.5,-0.8,1.8,2471.095,13.29,0.025,159.4
2023-01-23T00:55:03,42.805,6.029,0.003,-0.03,-0.003,105.0,101.0,102.0,13.3,1505.2,329.4,-0.8,1.8,2471.03,13.29,0.03,174.3
2023-01-23T00:58:03,42.805,6.029,0.014,-0.031,0.014,103.0,103.0,102.0,13.3,1505.2,330.7,-0.8,1.8,2471.072,13.29,0.034,155.7
2023-01-23T01:04:03,42.805,6.029,0.016,-0.016,-0.003,104.0,105.0,103.0,13.4,1505.2,322.8,-0.8,1.8,2471.111,13.28,0.022,135.0
2023-01-23T01:07:04,42.805,6.029,0.036,-0.035,0.025,103.0,104.0,102.0,13.4,1505.2,328.2,-0.8,1.8,2471.07,13.28,0.05,134.2
2023-01-23T01:10:03,42.805,6.029,0.031,-0.008,0.006,103.0,103.0,102.0,13.4,1505.2,331.8,-0.7,1.8,2471.049,13.28,0.032,104.5
2023-01-23T01:13:03,42.805,6.029,0.017,-0.018,0.015,104.0,105.0,102.0,13.4,1505.2,329.6,-0.7,1.9,2471.063,13.29,0.024,136.6
2023-01-23T01:16:03,42.805,6.029,0.021,-0.014,0.017,102.0,104.0,102.0,13.4,1505.2,317.6,-0.8,1.9,2471.06,13.29,0.025,123.7
2023-01-23T01:19:03,42.805,6.029,0.022,-0.01,0.005,103.0,103.0,102.0,13.3,1505.2,331.8,-0.7,1.8,2471.031,13.29,0.024,114.4
2023-01-23T01:22:03,42.805,6.029,0.007,-0.005,0.027,103.0,103.0,103.0,13.4,1505.2,337.5,-0.7,1.8,2471.056,13.29,0.008,125.5
2023-01-23T01:25:03,42.805,6.029,0.017,-0.013,0.01,104.0,103.0,102.0,13.3,1505.2,315.5,-0.8,1.8,2471.008,13.29,0.021,127.4
2023-01-23T01:28:03,42.805,6.029,0.019,-0.022,0.02,103.0,103.0,102.0,13.4,1505.2,321.0,-0.7,1.8,2471.06,13.29,0.029,139.2
2023-01-23T01:31:03,42.805,6.029,0.017,-0.032,0.029,102.0,104.0,103.0,13.4,1505.2,336.4,-0.8,1.8,2471.052,13.29,0.036,152.0
2023-01-23T01:34:03,42.805,6.029,-0.003,-0.026,0.007,104.0,104.0,101.0,13.3,1505.2,320.6,-0.7,1.8,2471.023,13.29,0.026,186.6
2023-01-23T01:37:03,42.805,6.029,0.017,-0.015,-0.01,103.0,102.0,102.0,13.4,1505.2,323.2,-0.8,1.8,2471.02,13.29,0.022,131.4
2023-01-23T01:40:03,42.805,6.029,-0.001,-0.017,-0.018,102.0,103.0,102.0,13.4,1505.2,337.7,-0.8,1.8,2471.037,13.29,0.017,183.4
2023-01-23T01:43:03,42.805,6.029,0.0,-0.017,0.006,102.0,105.0,102.0,13.4,1505.2,330.2,-0.7,1.8,2471.043,13.29,0.017,180.0
2023-01-23T01:46:03,42.805,6.029,0.024,-0.007,0.005,103.0,103.0,103.0,13.3,1505.2,318.3,-0.8,1.8,2471.04,13.29,0.025,106.3
2023-01-23T01:49:03,42.805,6.029,0.002,-0.019,0.03,103.0,102.0,102.0,13.3,1505.2,321.6,-0.8,1.8,2471.049,13.29,0.019,174.0
2023-01-23T01:52:03,42.805,6.029,0.012,-0.012,0.004,103.0,103.0,102.0,13.4,1505.2,316.6,-0.7,1.9,2471.033,13.29,0.016,135.0
2023-01-23T01:55:03,42.805,6.029,0.019,-0.025,0.008,102.0,103.0,102.0,13.4,1505.2,332.2,-0.7,1.8,2471.011,13.29,0.031,142.8
2023-01-23T01:58:03,42.805,6.029,-0.002,-0.02,-0.039,103.0,103.0,102.0,13.4,1505.2,321.6,-0.8,1.8,2471.023,13.29,0.02,185.7
2023-01-23T02:04:03,42.805,6.029,0.014,0.006,0.008,103.0,103.0,102.0,13.3,1505.2,315.0,-0.8,1.8,2471.042,13.28,0.015,66.8
2023-01-23T02:07:03,42.805,6.029,0.01,-0.015,-0.009,105.0,103.0,102.0,13.3,1505.2,327.8,-0.8,1.8,2471.066,13.28,0.018,146.3
2023-01-23T02:10:03,42.805,6.029,-0.002,-0.016,0.019,104.0,102.0,101.0,13.4,1505.2,326.3,-0.8,1.8,2471.076,13.28,0.016,187.1
2023-01-23T02:13:03,42.805,6.029,0.002,-0.025,-0.001,103.0,103.0,102.0,13.3,1505.2,328.5,-0.8,1.8,2471.053,13.29,0.025,175.4
2023-01-23T02:16:03,42.805,6.029,0.007,-0.007,0.012,104.0,102.0,101.0,13.4,1505.2,336.0,-0.7,1.8,2471.055,13.29,0.009,135.0
2023-01-23T02:19:03,42.805,6.029,0.019,-0.01,-0.012,102.0,103.0,102.0,13.3,1505.2,328.3,-0.8,1.8,2470.992,13.29,0.021,117.8
2023-01-23T02:22:03,42.805,6.029,0.017,-0.017,0.039,102.0,104.0,102.0,13.3,1505.2,335.9,-0.8,1.8,2471.04,13.29,0.024,135.0
2023-01-23T02:25:03,42.805,6.029,0.014,-0.007,0.036,101.0,103.0,103.0,13.4,1505.2,319.1,-0.8,1.8,2471.053,13.29,0.015,116.6
2023-01-23T02:28:03,42.805,6.029,-0.001,0.0,0.029,101.0,105.0,102.0,13.3,1505.2,320.8,-0.7,1.8,2471.02,13.29,0.001,270.0
2023-01-23T02:31:03,42.805,6.029,0.009,-0.019,0.005,102.0,103.0,102.0,13.4,1505.2,317.5,-0.8,1.8,2471.023,13.29,0.021,154.7
2023-01-23T02:34:03,42.805,6.029,0.004,-0.001,0.018,102.0,102.0,102.0,13.4,1505.2,320.1,-0.8,1.8,2471.001,13.29,0.004,104.0
2023-01-23T02:37:03,42.805,6.029,0.001,-0.011,-0.009,103.0,103.0,102.0,13.3,1505.2,335.2,-0.7,1.8,2471.029,13.29,0.011,174.8
2023-01-23T02:40:03,42.805,6.029,0.04,-0.018,0.009,103.0,103.0,102.0,13.3,1505.2,320.4,-0.8,1.8,2471.031,13.29,0.043,114.2
2023-01-23T02:43:03,42.805,6.029,0.02,-0.015,0.011,103.0,103.0,102.0,13.4,1505.2,316.7,-0.8,1.8,2471.035,13.29,0.025,126.9
2023-01-23T02:46:03,42.805,6.029,0.036,-0.027,-0.005,103.0,104.0,102.0,13.4,1505.2,330.0,-0.8,1.8,2470.999,13.29,0.045,126.9
2023-01-23T02:49:03,42.805,6.029,0.0,0.003,0.022,104.0,103.0,102.0,13.4,1505.2,324.8,-0.8,1.8,2471.045,13.29,0.003,0.0
2023-01-23T02:52:03,42.805,6.029,0.006,-0.013,0.017,103.0,103.0,102.0,13.4,1505.2,331.7,-0.7,1.8,2471.036,13.29,0.014,155.2
2023-01-23T02:55:03,42.805,6.029,-0.004,-0.005,0.025,104.0,101.0,102.0,13.3,1505.2,324.6,-0.8,1.8,2471.014,13.29,0.006,218.7
2023-01-23T02:58:03,42.805,6.029,0.021,0.0,0.021,102.0,104.0,102.0,13.4,1505.2,323.4,-0.7,1.8,2471.023,13.29,0.021,90.0
2023-01-23T03:04:03,42.805,6.029,0.022,-0.01,0.01,102.0,104.0,101.0,13.3,1505.2,321.2,-0.8,1.8,2471.099,13.28,0.024,114.4
2023-01-23T03:07:03,42.805,6.029,0.011,-0.014,-0.009,104.0,103.0,102.0,13.3,1505.2,338.8,-0.8,1.8,2471.084,13.28,0.017,141.8
2023-01-23T03:10:03,42.805,6.029,0.003,-0.017,-0.008,103.0,102.0,102.0,13.4,1505.2,322.7,-0.7,1.8,2471.081,13.28,0.017,170.0
2023-01-23T03:13:03,42.805,6.029,0.0,-0.011,-0.01,103.0,104.0,102.0,13.3,1505.2,337.0,-0.8,1.8,2471.039,13.29,0.011,180.0
2023-01-23T03:16:03,42.805,6.029,0.02,-0.02,0.002,103.0,104.0,101.0,13.4,1505.2,325.5,-0.8,1.8,2471.065,13.29,0.028,135.0
2023-01-23T03:19:03,42.805,6.029,0.024,-0.002,0.026,103.0,105.0,102.0,13.4,1505.2,322.2,-0.8,1.8,2471.091,13.29,0.024,94.8
2023-01-23T03:22:03,42.805,6.029,0.03,-0.031,-0.001,105.0,104.0,102.0,13.3,1505.2,335.1,-0.8,1.8,2471.049,13.29,0.043,135.9
2023-01-23T03:25:03,42.805,6.029,0.011,-0.004,-0.006,104.0,103.0,102.0,13.3,1505.2,328.0,-0.8,1.8,2471.076,13.29,0.011,110.0
2023-01-23T03:28:03,42.805,6.029,0.011,-0.01,-0.032,103.0,104.0,102.0,13.4,1505.2,337.3,-0.8,1.8,2471.058,13.29,0.014,132.3
2023-01-23T03:31:03,42.805,6.029,0.022,-0.017,0.015,103.0,104.0,102.0,13.4,1505.2,325.8,-0.8,1.8,2471.079,13.29,0.027,127.7
2023-01-23T03:34:03,42.805,6.029,0.008,0.009,0.02,105.0,102.0,101.0,13.4,1505.2,323.4,-0.8,1.8,2471.071,13.29,0.012,41.6
2023-01-23T03:37:03,42.805,6.029,0.006,-0.01,-0.043,104.0,102.0,103.0,13.3,1505.2,331.6,-0.7,1.8,2471.058,13.29,0.011,149.0
2023-01-23T03:40:03,42.805,6.029,0.05,0.011,0.024,102.0,103.0,103.0,13.3,1505.2,319.6,-0.7,1.8,2471.055,13.29,0.051,77.6
2023-01-23T03:43:03,42.805,6.029,0.005,-0.015,0.019,103.0,102.0,102.0,13.3,1505.2,330.1,-0.7,1.8,2471.073,13.29,0.015,161.6
2023-01-23T03:46:03,42.805,6.029,0.011,-0.006,0.016,102.0,102.0,103.0,13.4,1505.2,324.8,-0.8,1.8,2471.049,13.29,0.012,118.6
2023-01-23T03:49:03,42.805,6.029,0.023,-0.009,0.03,102.0,104.0,103.0,13.4,1505.2,316.5,-0.8,1.8,2471.076,13.29,0.024,111.4
2023-01-23T03:52:03,42.805,6.029,0.009,-0.023,0.0,103.0,103.0,102.0,13.3,1505.2,333.8,-0.8,1.8,2471.064,13.29,0.024,158.6
2023-01-23T03:55:03,42.805,6.029,0.017,-0.021,-0.02,104.0,103.0,102.0,13.3,1505.2,332.5,-0.8,1.8,2471.051,13.29,0.027,141.0
2023-01-23T03:58:03,42.805,6.029,0.011,-0.013,0.018,104.0,103.0,102.0,13.4,1505.2,322.1,-0.8,1.8,2471.087,13.29,0.017,139.8
2023-01-23T04:04:03,42.805,6.029,0.005,0.0,0.012,102.0,103.0,103.0,13.3,1505.2,332.5,-0.7,1.8,2471.13,13.28,0.005,90.0
2023-01-23T04:07:03,42.805,6.029,0.014,-0.002,0.014,103.0,103.0,102.0,13.3,1505.2,317.5,-0.8,1.8,2471.144,13.28,0.014,98.1
2023-01-23T04:10:03,42.805,6.029,-0.015,-0.006,-0.006,104.0,104.0,102.0,13.3,1505.2,320.0,-0.8,1.8,2471.132,13.28,0.016,248.2
2023-01-23T04:13:03,42.805,6.029,-0.002,-0.007,-0.001,103.0,105.0,102.0,13.3,1505.2,331.5,-0.8,1.8,2471.086,13.29,0.007,195.9
2023-01-23T04:16:03,42.805,6.029,0.011,-0.008,-0.004,102.0,103.0,102.0,13.3,1505.2,337.4,-0.8,1.8,2471.097,13.29,0.013,126.0
2023-01-23T04:19:03,42.805,6.029,-0.009,-0.007,-0.022,103.0,104.0,102.0,13.4,1505.2,327.0,-0.8,1.8,2471.116,13.29,0.011,232.1
2023-01-23T04:22:03,42.805,6.029,0.028,-0.03,-0.018,102.0,103.0,103.0,13.3,1505.2,320.9,-0.8,1.8,2471.098,13.29,0.041,137.0
2023-01-23T04:25:03,42.805,6.029,0.004,-0.014,0.016,104.0,104.0,103.0,13.3,1505.2,323.7,-0.8,1.8,2471.119,13.29,0.014,164.1
2023-01-23T04:28:03,42.805,6.029,0.018,0.008,0.02,103.0,103.0,102.0,13.4,1505.2,324.0,-0.7,1.8,2471.083,13.29,0.019,66.0
2023-01-23T04:31:03,42.805,6.029,0.003,-0.019,-0.008,102.0,103.0,102.0,13.4,1505.2,328.7,-0.8,1.8,2471.135,13.29,0.019,171.0
2023-01-23T04:34:03,42.805,6.029,-0.009,-0.009,0.002,104.0,103.0,102.0,13.4,1505.2,336.6,-0.8,1.8,2471.057,13.29,0.012,225.0
2023-01-23T04:37:03,42.805,6.029,0.01,0.0,0.013,103.0,104.0,102.0,13.4,1505.2,320.6,-0.8,1.8,2471.083,13.29,0.01,90.0
2023-01-23T04:40:03,42.805,6.029,0.019,-0.018,0.021,102.0,103.0,101.0,13.3,1505.2,322.8,-0.8,1.8,2471.131,13.29,0.026,133.5
2023-01-23T04:43:03,42.805,6.029,-0.004,-0.018,0.019,103.0,104.0,102.0,13.4,1505.2,328.8,-0.7,1.8,2471.095,13.29,0.018,192.5
2023-01-23T04:46:03,42.805,6.029,-0.01,-0.015,0.044,104.0,103.0,102.0,13.4,1505.2,322.2,-0.8,1.8,2471.121,13.29,0.018,213.7
2023-01-23T04:49:03,42.805,6.029,0.037,-0.004,0.018,104.0,103.0,102.0,13.3,1505.2,323.9,-0.8,1.8,2471.121,13.29,0.037,96.2
2023-01-23T04:52:03,42.805,6.029,0.006,-0.008,0.003,103.0,103.0,102.0,13.4,1505.2,321.2,-0.8,1.8,2471.128,13.29,0.01,143.1
2023-01-23T04:55:03,42.805,6.029,0.012,-0.009,-0.002,102.0,103.0,102.0,13.3,1505.2,340.1,-0.7,1.9,2471.129,13.29,0.015,126.9
2023-01-23T04:58:03,42.805,6.029,0.008,-0.005,0.011,103.0,103.0,102.0,13.3,1505.2,326.0,-0.7,1.8,2471.159,13.29,0.009,122.0
2023-01-23T05:04:03,42.805,6.029,0.039,-0.02,0.0,104.0,104.0,102.0,13.3,1505.2,322.6,-0.8,1.9,2471.235,13.28,0.043,117.1
2023-01-23T05:07:03,42.805,6.029,0.005,-0.014,-0.004,104.0,105.0,102.0,13.4,1505.2,319.2,-0.7,1.8,2471.226,13.28,0.014,160.4
2023-01-23T05:10:03,42.805,6.029,0.024,-0.003,-0.002,102.0,103.0,102.0,13.3,1505.2,320.9,-0.7,1.8,2471.171,13.29,0.024,97.1
2023-01-23T05:13:03,42.805,6.029,0.0,-0.009,0.004,102.0,104.0,102.0,13.4,1505.2,327.5,-0.7,1.8,2471.204,13.29,0.009,180.0
2023-01-23T05:16:03,42.805,6.029,0.01,0.0,0.024,104.0,104.0,103.0,13.4,1505.2,326.0,-0.8,1.8,2471.184,13.29,0.01,90.0
2023-01-23T05:19:03,42.805,6.029,0.031,0.004,0.013,103.0,103.0,102.0,13.4,1505.2,323.1,-0.8,1.8,2471.19,13.29,0.031,82.7
2023-01-23T05:22:03,42.805,6.029,-0.008,-0.017,-0.014,103.0,104.0,102.0,13.4,1505.2,323.2,-0.7,1.8,2471.215,13.29,0.018,205.2
2023-01-23T05:25:03,42.805,6.029,-0.008,0.001,-0.007,103.0,103.0,103.0,13.4,1505.2,324.6,-0.7,1.8,2471.183,13.29,0.008,277.1
2023-01-23T05:28:03,42.805,6.029,0.023,-0.015,0.005,103.0,104.0,102.0,13.4,1505.2,322.1,-0.8,1.8,2471.228,13.29,0.027,123.1
2023-01-23T05:31:03,42.805,6.029,0.016,-0.013,0.018,103.0,104.0,102.0,13.4,1505.2,322.1,-0.8,1.8,2471.198,13.29,0.02,129.1
2023-01-23T05:34:03,42.805,6.029,0.023,-0.018,0.005,104.0,103.0,102.0,13.3,1505.2,322.2,-0.7,1.8,2471.21,13.29,0.029,128.0
2023-01-23T05:37:03,42.805,6.029,0.003,-0.013,-0.005,103.0,104.0,102.0,13.3,1505.2,326.7,-0.8,1.8,2471.21,13.29,0.013,167.0
2023-01-23T05:40:03,42.805,6.029,0.016,-0.015,0.019,103.0,103.0,103.0,13.4,1505.2,334.2,-0.8,1.8,2471.207,13.29,0.021,133.1
2023-01-23T05:43:03,42.805,6.029,0.01,-0.014,0.0,104.0,103.0,102.0,13.4,1505.2,339.5,-0.8,1.9,2471.209,13.29,0.017,144.5
2023-01-23T05:46:03,42.805,6.029,0.021,-0.02,-0.016,102.0,104.0,103.0,13.3,1505.2,335.3,-0.8,1.8,2471.214,13.29,0.028,133.6
2023-01-23T05:49:03,42.805,6.029,0.006,0.002,0.017,103.0,103.0,102.0,13.4,1505.2,316.6,-0.8,1.8,2471.224,13.29,0.006,71.6
2023-01-23T05:52:03,42.805,6.029,0.011,0.002,-0.001,102.0,104.0,102.0,13.4,1505.2,327.3,-0.8,1.8,2471.222,13.29,0.011,79.7
2023-01-23T05:55:03,42.805,6.029,0.007,0.001,0.001,102.0,103.0,103.0,13.3,1505.2,328.2,-0.8,1.8,2471.221,13.29,0.007,81.9
2023-01-23T05:58:03,42.805,6.029,0.013,-0.009,0.028,104.0,103.0,102.0,13.3,1505.2,331.6,-0.8,1.8,2471.242,13.29,0.015,124.7
2023-01-23T06:04:03,42.805,6.029,0.021,0.009,0.015,103.0,103.0,102.0,13.4,1505.2,319.1,-0.8,1.8,2471.273,13.28,0.022,66.8
2023-01-23T06:07:03,42.805,6.029,0.01,0.01,0.005,103.0,104.0,103.0,13.4,1505.2,320.5,-0.8,1.8,2471.3,13.28,0.014,45.0
2023-01-23T06:10:03,42.805,6.029,0.013,-0.021,0.011,104.0,104.0,103.0,13.4,1505.2,335.9,-0.8,1.8,2471.277,13.28,0.024,148.2
2023-01-23T06:13:03,42.805,6.029,0.019,-0.018,0.003,104.0,103.0,102.0,13.3,1505.2,324.1,-0.8,1.8,2471.295,13.29,0.026,133.5
2023-01-23T06:16:03,42.805,6.029,-0.002,-0.008,-0.035,103.0,104.0,103.0,13.4,1505.2,324.0,-0.8,1.8,2471.266,13.29,0.008,194.0
2023-01-23T06:19:03,42.805,6.029,0.0,-0.003,-0.009,104.0,103.0,102.0,13.3,1505.2,325.6,-0.7,1.9,2471.308,13.29,0.003,180.0
2023-01-23T06:22:03,42.805,6.029,-0.007,0.006,0.01,103.0,104.0,102.0,13.3,1505.2,338.3,-0.7,1.8,2471.324,13.29,0.009,310.6
2023-01-23T06:25:03,42.805,6.029,0.014,0.002,0.024,103.0,103.0,102.0,13.4,1505.2,333.0,-0.8,1.8,2471.304,13.29,0.014,81.9
2023-01-23T06:28:03,42.805,6.029,0.012,0.016,-0.006,103.0,102.0,103.0,13.4,1505.2,319.7,-0.8,1.8,2471.266,13.29,0.02,36.9
2023-01-23T06:31:03,42.805,6.029,-0.011,0.008,0.022,104.0,102.0,102.0,13.4,1505.2,330.3,-0.8,1.8,2471.312,13.29,0.013,306.0
2023-01-23T06:34:03,42.805,6.029,0.032,-0.017,0.003,103.0,104.0,102.0,13.4,1505.2,335.9,-0.8,1.8,2471.268,13.29,0.036,118.0
2023-01-23T06:37:03,42.805,6.029,0.013,0.003,0.027,103.0,104.0,102.0,13.4,1505.2,320.1,-0.8,1.8,2471.3,13.29,0.013,77.0
2023-01-23T06:40:03,42.805,6.029,0.006,0.0,-0.004,103.0,103.0,102.0,13.4,1505.2,328.2,-0.8,1.9,2471.299,13.29,0.006,90.0
2023-01-23T06:43:03,42.805,6.029,-0.011,-0.013,0.021,103.0,104.0,102.0,13.4,1505.2,327.8,-0.7,1.8,2471.278,13.29,0.017,220.2
2023-01-23T06:46:03,42.805,6.029,0.009,0.0,0.031,104.0,103.0,102.0,13.4,1505.2,321.0,-0.8,1.8,2471.322,13.29,0.009,90.0
2023-01-23T06:49:03,42.805,6.029,0.014,-0.011,0.003,103.0,103.0,102.0,13.4,1505.2,336.5,-0.8,1.8,2471.339,13.29,0.017,128.2
2023-01-23T06:52:03,42.805,6.029,0.005,-0.001,-0.003,103.0,103.0,102.0,13.4,1505.2,323.8,-0.8,1.8,2471.311,13.29,0.005,101.3
2023-01-23T06:55:03,42.805,6.029,0.0,0.004,0.024,103.0,103.0,102.0,13.3,1505.2,335.9,-0.8,1.8,2471.277,13.29,0.004,0.0
2023-01-23T06:58:03,42.805,6.029,0.011,-0.001,-0.001,103.0,103.0,102.0,13.4,1505.2,321.0,-0.7,1.8,2471.327,13.29,0.011,95.2
2023-01-23T07:04:03,42.805,6.029,-0.009,0.022,0.024,103.0,104.0,103.0,13.4,1505.2,318.3,-0.7,1.9,2471.37,13.28,0.023,337.8
2023-01-23T07:07:03,42.805,6.029,-0.009,-0.001,-0.03,103.0,105.0,102.0,13.4,1505.2,321.2,-0.8,1.8,2471.363,13.28,0.009,263.7
2023-01-23T07:10:03,42.805,6.029,0.005,-0.006,0.007,103.0,103.0,102.0,13.4,1505.2,337.2,-0.8,1.8,2471.363,13.29,0.007,140.2
2023-01-23T07:13:03,42.805,6.029,0.008,0.007,0.017,103.0,103.0,103.0,13.3,1505.2,319.5,-0.7,1.8,2471.38,13.29,0.01,48.8
2023-01-23T07:16:03,42.805,6.029,0.002,0.006,0.001,103.0,103.0,103.0,13.3,1505.2,318.7,-0.8,1.9,2471.372,13.29,0.006,18.4
2023-01-23T07:19:03,42.805,6.029,0.017,-0.011,0.005,102.0,105.0,102.0,13.4,1505.2,322.6,-0.8,1.8,2471.345,13.29,0.02,122.9
2023-01-23T07:22:03,42.805,6.029,-0.002,-0.016,0.024,103.0,103.0,102.0,13.3,1505.2,325.8,-0.7,1.8,2471.298,13.29,0.016,187.1
2023-01-23T07:25:03,42.805,6.029,0.019,-0.024,0.006,104.0,103.0,103.0,13.4,1505.2,330.2,-0.8,1.8,2471.367,13.29,0.03,141.6
2023-01-23T07:28:02,42.805,6.029,0.02,0.019,0.024,105.0,104.0,101.0,13.4,1505.2,331.0,-0.7,1.8,2471.318,13.29,0.027,46.5
2023-01-23T07:31:02,42.805,6.029,0.017,-0.01,0.004,104.0,103.0,102.0,13.4,1505.2,329.0,-0.8,1.9,2471.304,13.29,0.019,120.5
2023-01-23T07:34:02,42.805,6.029,0.002,-0.006,0.035,103.0,104.0,101.0,13.3,1505.2,321.2,-0.7,1.8,2471.321,13.29,0.006,161.6
2023-01-23T07:37:02,42.805,6.029,0.004,0.003,0.035,104.0,104.0,102.0,13.4,1505.2,324.4,-0.8,1.8,2471.357,13.29,0.005,53.1
2023-01-23T07:40:03,42.805,6.029,-0.012,0.002,0.002,103.0,103.0,102.0,13.4,1505.2,325.8,-0.7,1.8,2471.349,13.29,0.012,279.5
2023-01-23T07:43:03,42.805,6.029,0.037,0.007,0.014,102.0,105.0,101.0,13.4,1505.2,318.9,-0.8,1.9,2471.36,13.29,0.037,79.3
2023-01-23T07:46:03,42.805,6.029,0.004,-0.009,0.002,105.0,104.0,102.0,13.4,1505.2,335.9,-0.8,1.8,2471.37,13.29,0.009,156.0
2023-01-23T07:49:03,42.805,6.029,0.029,0.016,0.036,102.0,102.0,103.0,13.4,1505.2,327.3,-0.8,1.8,2471.348,13.29,0.033,61.1
2023-01-23T07:52:02,42.805,6.029,0.001,-0.012,0.007,103.0,104.0,102.0,13.3,1505.2,333.0,-0.8,1.8,2471.351,13.29,0.012,175.2
2023-01-23T07:55:03,42.805,6.029,-0.002,0.014,0.023,103.0,104.0,102.0,13.4,1505.2,319.0,-0.8,1.8,2471.385,13.29,0.014,351.9
2023-01-23T07:58:03,42.805,6.029,0.002,-0.002,-0.001,102.0,105.0,103.0,13.4,1505.2,330.5,-0.7,1.8,2471.381,13.29,0.002,135.0
2023-01-23T08:04:02,42.805,6.029,-0.004,0.007,0.03,104.0,104.0,102.0,13.3,1505.2,327.5,-0.8,1.8,2471.402,13.28,0.008,330.3
2023-01-23T08:07:03,42.805,6.029,0.029,-0.008,0.027,102.0,103.0,102.0,13.3,1505.2,335.0,-0.8,1.8,2471.408,13.28,0.03,105.4
2023-01-23T08:10:03,42.805,6.029,0.017,-0.019,-0.005,103.0,103.0,102.0,13.4,1505.2,337.0,-0.8,1.8,2471.382,13.28,0.025,138.2
2023-01-23T08:13:03,42.805,6.029,0.015,0.012,0.039,103.0,103.0,102.0,13.4,1505.2,318.6,-0.8,1.8,2471.421,13.29,0.019,51.3
2023-01-23T08:16:03,42.805,6.029,0.012,0.014,0.041,104.0,103.0,102.0,13.3,1505.2,317.5,-0.8,1.8,2471.351,13.29,0.018,40.6
2023-01-23T08:19:03,42.805,6.029,0.025,-0.005,0.017,103.0,103.0,103.0,13.4,1505.2,328.0,-0.8,1.8,2471.408,13.29,0.025,101.3
2023-01-23T08:22:03,42.805,6.029,0.009,-0.016,0.016,103.0,103.0,102.0,13.4,1505.2,338.7,-0.8,1.9,2471.411,13.29,0.018,150.6
2023-01-23T08:25:03,42.805,6.029,0.002,-0.009,0.004,103.0,103.0,102.0,13.4,1505.2,337.8,-0.8,1.8,2471.397,13.29,0.009,167.5
2023-01-23T08:28:03,42.805,6.029,0.009,-0.013,0.007,103.0,102.0,103.0,13.4,1505.2,318.6,-0.8,1.8,2471.36,13.29,0.015,145.3
2023-01-23T08:31:03,42.805,6.029,0.008,0.003,0.027,104.0,102.0,102.0,13.4,1505.2,321.5,-0.8,1.8,2471.412,13.29,0.008,69.4
2023-01-23T08:34:03,42.805,6.029,0.009,-0.007,0.031,104.0,105.0,101.0,13.4,1505.2,324.2,-0.7,1.8,2471.394,13.29,0.011,127.9
2023-01-23T08:37:03,42.805,6.029,0.027,0.0,0.004,105.0,103.0,102.0,13.4,1505.2,326.7,-0.8,1.8,2471.373,13.29,0.026,90.0
2023-01-23T08:40:03,42.805,6.029,0.016,-0.01,0.044,103.0,103.0,102.0,13.4,1505.2,336.8,-0.8,1.8,2471.353,13.29,0.018,122.0
2023-01-23T08:43:03,42.805,6.029,0.016,-0.002,0.005,102.0,104.0,101.0,13.4,1505.2,323.9,-0.7,1.8,2471.385,13.29,0.016,97.1
2023-01-23T08:46:03,42.805,6.029,0.0,0.014,0.031,103.0,103.0,103.0,13.4,1505.2,333.8,-0.8,1.8,2471.373,13.29,0.014,0.0
2023-01-23T08:49:03,42.805,6.029,-0.015,-0.008,0.017,103.0,104.0,102.0,13.3,1505.2,319.0,-0.7,1.8,2471.385,13.29,0.017,241.9
2023-01-23T08:52:03,42.805,6.029,0.025,0.012,0.024,103.0,103.0,102.0,13.3,1505.2,329.6,-0.8,1.8,2471.315,13.29,0.027,64.4
2023-01-23T08:55:03,42.805,6.029,0.0,-0.014,0.016,103.0,104.0,101.0,13.4,1505.2,320.0,-0.8,1.8,2471.379,13.29,0.014,180.0
2023-01-23T08:58:03,42.805,6.029,0.004,-0.022,0.019,103.0,103.0,102.0,13.3,1505.2,334.8,-0.8,1.8,2471.341,13.29,0.022,169.7
2023-01-23T09:04:03,42.805,6.029,0.014,0.008,0.014,102.0,103.0,102.0,13.4,1505.2,335.8,-0.7,1.8,2471.416,13.28,0.016,60.3
2023-01-23T09:07:03,42.805,6.029,0.005,-0.009,0.011,103.0,103.0,102.0,13.4,1505.2,316.0,-0.8,1.8,2471.428,13.28,0.01,150.9
2023-01-23T09:10:03,42.805,6.029,0.019,0.006,-0.003,103.0,103.0,102.0,13.4,1505.2,324.8,-0.8,1.8,2471.386,13.28,0.019,72.5
2023-01-23T09:13:03,42.805,6.029,0.011,0.008,-0.006,102.0,103.0,103.0,13.3,1505.2,326.5,-0.7,1.8,2471.372,13.29,0.013,54.0
2023-01-23T09:16:03,42.805,6.029,0.021,-0.006,-0.002,103.0,103.0,101.0,13.4,1505.2,326.3,-0.8,1.8,2471.402,13.29,0.021,105.9
2023-01-23T09:19:03,42.805,6.029,0.0,-0.005,0.02,102.0,103.0,102.0,13.3,1505.2,322.9,-0.7,1.8,2471.386,13.29,0.005,180.0
2023-01-23T09:22:03,42.805,6.029,0.033,-0.009,0.009,102.0,103.0,103.0,13.4,1505.2,324.4,-0.7,1.8,2471.387,13.29,0.034,105.3
2023-01-23T09:25:03,42.805,6.029,0.032,-0.016,0.0,102.0,102.0,102.0,13.4,1505.2,324.0,-0.8,1.8,2471.341,13.29,0.035,116.6
2023-01-23T09:28:03,42.805,6.029,0.012,0.007,0.006,103.0,101.0,102.0,13.4,1505.2,330.1,-0.8,1.8,2471.378,13.29,0.013,59.7
2023-01-23T09:31:03,42.805,6.029,0.003,-0.001,0.019,102.0,104.0,102.0,13.3,1505.2,327.0,-0.8,1.8,2471.369,13.29,0.003,108.4
2023-01-23T09:34:03,42.805,6.029,0.015,0.0,0.001,103.0,102.0,101.0,13.4,1505.2,327.0,-0.8,1.9,2471.338,13.29,0.015,90.0
2023-01-23T09:37:03,42.805,6.029,0.031,-0.006,0.021,102.0,103.0,103.0,13.4,1505.2,318.5,-0.7,1.8,2471.408,13.29,0.031,101.0
2023-01-23T09:40:03,42.805,6.029,0.015,-0.022,0.005,103.0,103.0,102.0,13.4,1505.2,331.9,-0.8,1.8,2471.353,13.29,0.026,145.7
2023-01-23T09:43:03,42.805,6.029,0.026,-0.019,0.014,102.0,104.0,102.0,13.3,1505.2,325.4,-0.8,1.8,2471.369,13.29,0.032,126.2
2023-01-23T09:46:03,42.805,6.029,0.017,-0.019,0.015,103.0,104.0,102.0,13.4,1505.2,329.3,-0.8,1.8,2471.362,13.29,0.025,138.2
2023-01-23T09:49:03,42.805,6.029,0.01,0.001,0.009,103.0,102.0,101.0,13.3,1505.2,324.6,-0.8,1.8,2471.313,13.29,0.01,84.3
2023-01-23T09:52:03,42.805,6.029,0.003,-0.006,-0.007,103.0,103.0,102.0,13.3,1505.2,328.3,-0.8,1.8,2471.333,13.29,0.006,153.4
2023-01-23T09:55:03,42.805,6.029,-0.003,-0.004,0.019,103.0,101.0,102.0,13.3,1505.2,317.2,-0.8,1.8,2471.359,13.29,0.005,216.9
2023-01-23T09:58:03,42.805,6.029,0.005,-0.004,-0.01,103.0,104.0,102.0,13.4,1505.2,328.2,-0.7,1.8,2471.373,13.29,0.006,128.7